Location: Ocean City
(38.3360°N, 75.0850°W)
Time: 09:47:26
(UTC-04:00)

MOZHAYETS 4 - Pass Details

Date: 22 May 2019
Orbit: 661 x 681 km, 98.0° (Epoch: 26 June)

Event Time Altitude Azimuth Distance (km) Brightness Sun altitude
Exits shadow 04:36:34 11° 268° (W) 2,076 9.8 -12.0°
Maximum altitude 04:36:41 11° 270° (W) 2,075 9.8 -11.9°
Drops below altitude 10° 04:37:37 10° 282° (WNW) 2,112 9.9 -11.8°
Sets 04:41:59 0° 321° (NW) 3,029 11.1 -11.1°
